Cyclone, PA

2:11 AM EDT on September 29, 2016 (GMT -0400)
Bradford Regional

Weather History for KBFD - October, 2012

Change the Weather History Date:

Sunday, October 14, 2012

  Actual Average Record
Temperature  
Mean Temperature 60 °F 47 °F  
Max Temperature 72 °F 58 °F 79 °F (1975)
Min Temperature 48 °F 36 °F 20 °F (1993)
Degree Days  
Heating Degree Days 6 14  
Month to date heating degree days 164  
Since 1 July heating degree days 581  
Cooling Degree Days 0 0  
Month to date cooling degree days 0  
Year to date cooling degree days 192  
Growing Degree Days 10 (Base 50)    
Moisture  
Dew Point 49 °F    
Average Humidity 68    
Maximum Humidity 83    
Minimum Humidity 51    
Precipitation  
Precipitation 0.06 in 0.11 in 0.82 in (2003)
Month to date precipitation 1.65  
Year to date precipitation 35.52  
Sea Level Pressure  
Sea Level Pressure 29.95 in    
Wind  
Wind Speed 7 mph (SSW)    
Max Wind Speed 17 mph    
Max Gust Speed 28 mph    
Visibility 10 miles    
Events Rain    
T = Trace of Precipitation, MM = Missing Value Source: NWS Daily Summary

Daily Weather History Graph

Daily Weather History Graph

Search for Another Location

Airport or City:

Trip Planner

Search our weather history database for the weather conditions in past years. The results will help you decide how hot, cold, wet, or windy it might be!

Date:

Astronomy

Oct. 14, 2012 Rise Set
Actual Time 7:26 AM EDT 6:33 PM EDT
Civil Twilight 6:58 AM EDT 7:01 PM EDT
Nautical Twilight 6:25 AM EDT 7:34 PM EDT
Astronomical Twilight 5:53 AM EDT 8:06 PM EDT
Moon 6:22 AM EDT (10/14) 5:52 PM EDT (10/14)
Length of Visible Light 12h 03m
Length of Day
11h 07m
Waning Crescent, 1% of the Moon is Illuminated
Oct 14
Waning Crescent
Oct 15
New
Oct 21
First Quarter
Oct 29
Full
Nov 6
Last Quarter

Hourly Weather History & Observations

Time (EDT) Temp. Dew Point Humidity Pressure Visibility Wind Dir Wind Speed Gust Speed Precip Events Conditions
1:53 AM 48.9 °F 42.1 °F 77% 30.08 in 6.0 mi Calm Calm - 0.02 in Rain Light Rain
2:44 AM 50.0 °F 43.0 °F 77% 30.06 in 10.0 mi South 6.9 mph - 0.00 in Rain Light Rain
2:53 AM 50.0 °F 43.0 °F 77% 30.06 in 10.0 mi South 8.1 mph - 0.00 in Rain Light Rain
3:19 AM 52.0 °F 44.1 °F 74% 30.05 in 10.0 mi Variable 4.6 mph - 0.00 in   Overcast
3:53 AM 51.1 °F 46.0 °F 83% 30.05 in 6.0 mi Variable 6.9 mph - 0.01 in Rain Light Rain
4:13 AM 51.1 °F 46.0 °F 83% 30.04 in 6.0 mi SSW 5.8 mph - 0.02 in Rain Light Rain
4:53 AM 52.0 °F 46.0 °F 80% 30.04 in 10.0 mi Variable 4.6 mph - 0.03 in   Overcast
5:30 AM 53.1 °F 46.9 °F 80% 30.04 in 10.0 mi SSW 6.9 mph - 0.00 in Rain Light Rain
5:53 AM 53.1 °F 46.0 °F 77% 30.04 in 10.0 mi SSW 6.9 mph - 0.00 in   Overcast
6:53 AM 55.0 °F 46.9 °F 74% 30.04 in 10.0 mi South 8.1 mph - N/A   Mostly Cloudy
7:12 AM 55.0 °F 46.9 °F 74% 30.04 in 10.0 mi SSW 10.4 mph - N/A   Overcast
7:41 AM 55.0 °F 48.0 °F 77% 30.05 in 10.0 mi SSW 5.8 mph - N/A   Overcast
7:53 AM 55.9 °F 48.0 °F 75% 30.05 in 10.0 mi Variable 6.9 mph - N/A   Overcast
8:53 AM 57.9 °F 50.0 °F 75% 30.05 in 10.0 mi SSW 6.9 mph - N/A   Overcast
9:53 AM 60.1 °F 51.1 °F 72% 30.04 in 10.0 mi SSW 6.9 mph 16.1 mph N/A   Overcast
10:53 AM 63.0 °F 52.0 °F 67% 30.01 in 10.0 mi SW 12.7 mph 18.4 mph N/A   Overcast
11:53 AM 63.0 °F 53.1 °F 70% 30.01 in 10.0 mi SSW 11.5 mph 18.4 mph N/A   Overcast
12:53 PM 66.0 °F 53.1 °F 63% 29.97 in 10.0 mi SSW 10.4 mph 19.6 mph N/A   Mostly Cloudy
1:15 PM 68.0 °F 54.0 °F 61% 29.96 in 10.0 mi South 13.8 mph 20.7 mph N/A   Scattered Clouds
1:53 PM 70.0 °F 54.0 °F 57% 29.93 in 10.0 mi SW 13.8 mph 27.6 mph N/A   Partly Cloudy
2:53 PM 71.1 °F 54.0 °F 55% 29.89 in 10.0 mi SSW 10.4 mph 25.3 mph N/A   Mostly Cloudy
4:53 PM 71.1 °F 52.0 °F 51% 29.82 in 10.0 mi South 17.3 mph 26.5 mph N/A   Clear
5:53 PM 69.1 °F 51.1 °F 53% 29.82 in 10.0 mi SSW 10.4 mph 16.1 mph N/A   Clear
6:53 PM 69.1 °F 52.0 °F 54% 29.81 in 10.0 mi South 9.2 mph - N/A   Mostly Cloudy
7:53 PM 69.1 °F 51.1 °F 53% 29.78 in 10.0 mi South 10.4 mph 20.7 mph N/A   Mostly Cloudy
8:53 PM 68.0 °F 51.1 °F 55% 29.75 in 10.0 mi South 8.1 mph 16.1 mph N/A   Overcast
9:53 PM 66.0 °F 50.0 °F 56% 29.74 in 10.0 mi South 13.8 mph 20.7 mph N/A   Overcast
10:53 PM 64.9 °F 50.0 °F 58% 29.73 in 10.0 mi South 10.4 mph 20.7 mph N/A   Overcast
11:53 PM 64.9 °F 48.9 °F 56% 29.69 in 10.0 mi South 10.4 mph 19.6 mph 0.00 in   Mostly Cloudy